Regional Weather Roundup
Issued by NWS

Home | Current Version | Previous Version | Graphics & Text | Print | Product List | Glossary On
Versions: 1 2 3 4 5 6 7 8 9 10 11 12 13 14 15 16 17 18 19 20 21 22 23 24 25 26 27 28 29 30 31 32 33 34 35 36 37 38 39 40 41 42 43 44 45 46 47 48 49 50
000
ASUS43 KFSD 271202
RWRSD

WEATHER ROUNDUP FOR SOUTH DAKOTA
NATIONAL WEATHER SERVICE SIOUX FALLS SD
700 AM CDT SAT MAY 27 2017

NOTE: "FAIR" INDICATES FEW OR NO CLOUDS BELOW 12,000 FEET WITH NO
SIGNIFICANT WEATHER AND/OR OBSTRUCTIONS TO VISIBILITY.


SDZ001>005-009-010-012>017-271300-
NORTHWEST AND NORTH CENTRAL SOUTH DAKOTA

CITY           SKY/WX    TMP DP  RH WIND       PRES   REMARKS
BUFFALO          N/A     43  38  82 W12       29.91R
FAITH            N/A     48  44  86 W7        29.95R
MOBRIDGE       CLOUDY    55  42  61 CALM      29.89R
$$

SDZ012>016-024>037-041>051-057-063-072>074-271300-
SOUTHWEST AND SOUTH CENTRAL SOUTH DAKOTA

CITY           SKY/WX    TMP DP  RH WIND       PRES   REMARKS
RAPID CTY ARPT CLOUDY    48  45  89 NW5       29.99R
PIERRE         LGT RAIN  54  50  86 NW3       29.94R
CUSTER         CLOUDY    42  37  82 CALM      30.03R
ELLSWORTH AFB  CLOUDY    48  47  97 W6        29.98R
PHILIP         PTCLDY    50  50 100 W7        29.97R
PINE RIDGE     MOCLDY    49  49 100 SW5       30.00S
SPEARFISH      FAIR      46  41  81 W7        30.02R
WINNER         CLOUDY    55  51  86 W5        29.97R
$$

SDZ004>011-016>023-039-040-271300-
NORTHEAST SOUTH DAKOTA

CITY           SKY/WX    TMP DP  RH WIND       PRES   REMARKS
ABERDEEN       CLOUDY    52  44  74 S6        29.90R
WATERTOWN      CLOUDY    50  47  89 S3        29.90S
BROOKINGS      CLOUDY    53  50  89 CALM      29.92R
SISSETON         N/A     59  47  64 W8        29.86R
$$

SDZ017-020-022-023-036>040-048>070-271300-
SOUTHEAST SOUTH DAKOTA

CITY           SKY/WX    TMP DP  RH WIND       PRES   REMARKS
SIOUX FALLS    LGT RAIN  55  49  80 SW3       29.93R
HURON          CLOUDY    55  50  83 NW5       29.91F
CHAMBERLAIN    CLOUDY    58  50  74 W6        29.94S
MITCHELL       CLOUDY    58  49  72 SW7       29.92R
YANKTON        CLOUDY    54  52  93 NW3       29.93S
$$

ABBREVIATIONS USED IN REMARKS
   TC - TEMPERATURE IN CELSIUS
  WCI - WIND CHILL INDEX
   HX - HEAT INDEX
  VSB - VISIBILITY




USA.gov is the U.S. government's official web portal to all federal, state and local government web resources and services.